Regional Weather Roundup
Issued by NWS

Home | Current Version | Previous Version | Graphics & Text | Print | Product List | Glossary On
Versions: 1 2 3 4 5 6 7 8 9 10 11 12 13 14 15 16 17 18 19 20 21 22 23 24 25 26 27 28 29 30 31 32 33 34 35 36 37 38 39 40 41 42 43 44 45 46 47 48 49 50
000
ASUS43 KMPX 261501
RWRMN
WEATHER ROUNDUP FOR MINNESOTA
NATIONAL WEATHER SERVICE TWIN CITIES/CHANHASSEN MN
900 AM CST SUN FEB 26 2017


NOTE: "FAIR" INDICATES FEW OR NO CLOUDS BELOW 12,000 FEET WITH NO
SIGNIFICANT WEATHER AND/OR OBSTRUCTIONS TO VISIBILITY. N/A MEANS
CURRENT SKY AND/OR WEATHER CONDITIONS ARE NOT AVAILABLE.

MNZ060>063-068>070-261600-
   Twin Cities Metro

CITY           SKY/WX    TMP DP  RH WIND       PRES   REMARKS
TWIN CITIES    CLOUDY    26  18  71 SW9       29.76R WCI  17
ST PAUL        CLOUDY    27  20  75 SW5       29.77R WCI  22
CRYSTAL        CLOUDY    26  19  74 SW7       29.74R WCI  18
BLAINE         PTSUNNY   27  21  80 SW9       29.74R WCI  17
LAKEVILLE      PTSUNNY   25  21  86 SW5       29.76S WCI  19
EDEN PRAIRIE   CLOUDY    25  19  78 SW7       29.75R WCI  17
SOUTH ST PAUL  CLOUDY    28  21  74 SW8       29.76R WCI  20
LAKE ELMO      PTSUNNY   28  23  80 SW10      29.76R WCI  19
$$
MNZ001>005-007-008-013>017-022>024-027-028-261600-
   Northwest Minnesota

CITY           SKY/WX    TMP DP  RH WIND       PRES   REMARKS
BEMIDJI        FLURRIES  10   5  80 N10       29.74R WCI  -4
HALLOCK        SUNNY      3   0  85 CALM      29.80R
ROSEAU         SUNNY      7   3  85 W7        29.76R WCI  -5
WARROAD        SUNNY      7   1  78 W3        29.76R
THIEF RVR FALL SUNNY     10   5  80 CALM        N/A
CROOKSTON      SUNNY     10   5  79 NW8       29.83R WCI  -1
FOSSTON        FLURRIES  10   3  72 NW5       29.78R WCI   2
DETROIT LAKES  LGT SNOW  14  12  92 N12       29.77R WCI   0
MOORHEAD       SUNNY     10   7  85 NW9       29.83R WCI  -2
PARK RAPIDS    PTSUNNY   16   7  67 N9        29.72R WCI   4
MAHNOMEN       FAIR      10   6  85 NW8       29.78R WCI  -2
$$
MNZ006-009>011-018-025>026-261600-
   North Central Minnesota

CITY           SKY/WX    TMP DP  RH WIND       PRES   REMARKS
BAUDETTE       SUNNY      7  -1  70 NW8       29.73R WCI  -6
FLAG ISLAND    SUNNY      5   0  78 NW5       29.73R WCI  -4
INTL FALLS     SUNNY      9   0  67 NW9       29.71R WCI  -4
WASKISH        SUNNY      9   3  78 W5        29.75R WCI   0
BIG FORK       MOSUNNY   10   3  72 NW5       29.71R WCI   2
LONGVILLE      LGT SNOW  14  10  85 N7        29.71R WCI   4
GRAND RAPIDS   LGT SNOW  14   9  80 NW14      29.70R WCI  -1
CRANE LAKE     LGT SNOW  10   7  85 NW3       29.70S
ORR            LGT SNOW  10   5  79 NW12      29.66R WCI  -4
COOK           LGT SNOW  12   9  85 NW6       29.68R WCI   3
WALKER         FAIR      12   6  75 NW8       29.73R WCI   1
$$
MNZ012-019>021-037-261600-
   Northeast Minnesota

CITY           SKY/WX    TMP DP  RH WIND       PRES   REMARKS
DULUTH         SNOW      25  22  88 SW10      29.61S VSB 1/2 WCI  15
ELY            LGT SNOW  14  10  85 W5        29.64R VSB 1   WCI   6
HIBBING        LGT SNOW  13  10  88 NW12      29.66R VSB 1   WCI  -1
EVELETH        LGT SNOW  17  11  78 N8        29.66R VSB 1   WCI   6
DULUTH HARBOR  CLOUDY    27  25  93 CALM      29.67S
TWO HARBORS    LGT SNOW  27  21  80 CALM      29.61S VSB 1
SILVER BAY     LGT SNOW  23  19  86 CALM      29.61R
GRAND MARAIS     N/A     23  14  68 MISG      29.64S
G MARAIS ARPRT LGT SNOW  16   9  73 NW3       29.57S
$$
MNZ029>031-032-039>041-046>048-054>057-064-261600-
   West Central Minnesota

CITY           SKY/WX    TMP DP  RH WIND       PRES   REMARKS
FERGUS FALLS   SUNNY     10  10 100 NW9       29.84R WCI  -2
WHEATON        SUNNY     16  10  79 NW15      29.84R WCI   1
MORRIS         SUNNY     19  16  86 NW21      29.78R WCI   3
ALEXANDRIA     MOSUNNY   24  18  77 NW18G25   29.73R WCI  10
ELBOW LAKE     FAIR      13  12  94 NW9       29.78R WCI   1
WADENA         MOSUNNY   16  12  86 NW5       29.73R WCI   9
GLENWOOD       MOSUNNY   27  21  80 W20       29.73R WCI  13
APPLETON       MOSUNNY   25  19  80 NW17      29.79R WCI  11
BENSON         CLOUDY    28  21  74 N14G22    29.78R WCI  17
ORTONVILLE     PTSUNNY   21  18  86 N6        29.81R WCI  14
MADISON        MOSUNNY   30  23  74 NW15G23   29.80R WCI  19
WILLMAR        FAIR      30  27  86 W15       29.76R WCI  19
$$
MNZ033>034-036-042>043-049>051-058-059-261600-
   Central Minnesota

CITY           SKY/WX    TMP DP  RH WIND       PRES   REMARKS
ST CLOUD       MOSUNNY   29  24  82 W13       29.71R WCI  19
SAUK CENTRE    CLOUDY    28  23  82 W9        29.72R WCI  19
PAYNESVILLE    PTSUNNY   29  25  85 W14G22    29.74R WCI  18
AITKIN         LGT SNOW  27  19  74 W8        29.67R WCI  18
PINE RIVER     LGT SNOW  16  12  86 N6        29.75R WCI   7
BRAINERD       LGT SNOW  22  19  89 NW15      29.70R FOG     WCI   9
STAPLES        FLURRIES  18  18 100 N13       29.72R WCI   4
LONG PRAIRIE   CLOUDY    27  21  80 W15       29.71R WCI  15
LITTLE FALLS   CLOUDY    28  23  80 NW5       29.71R WCI  23
LITCHFIELD     PTSUNNY   30  25  80 W8        29.74S WCI  23
BUFFALO        PTSUNNY   27  23  85 S7        29.76R WCI  19
MAPLE LAKE     PTSUNNY   29  26  89 SW7       29.74R WCI  22
HUTCHINSON     CLOUDY    29  25  85 W10       29.77R WCI  19
$$
MNZ037-044-045-052-053-261600-
   East Central Minnesota

CITY           SKY/WX    TMP DP  RH WIND       PRES   REMARKS
PRINCETON      CLOUDY    28  25  86 SW7       29.72R WCI  21
MORA           PTSUNNY   28  23  80 SW8       29.71R WCI  20
CAMBRIDGE      CLOUDY    28  19  69 W5        29.71R WCI  23
RUSH CITY      CLOUDY    27  21  80 SW8       29.71S WCI  18
MOOSE LAKE     LGT SNOW  27  23  86 SW10      29.64S WCI  17
HINCKLEY       CLOUDY    28  25  86 SW9       29.69R WCI  20
CLOQUET        LGT SNOW  25  21  86 SW6       29.63R WCI  18
MCGREGOR       CLOUDY    27  23  86 W9        29.66R WCI  17
$$
MNZ071>073-080-081-089-090-097-098-261600-
   Southwest Minnesota

CITY           SKY/WX    TMP DP  RH WIND       PRES   REMARKS
MONTEVIDEO     PTSUNNY   30  25  80 N14G24    29.79R WCI  20
GRANITE FALLS  MOSUNNY   31  26  81 W14       29.80R WCI  21
CANBY          MOSUNNY   31  25  79 NW15      29.80R WCI  20
MARSHALL       SUNNY     29  24  82 NW16      29.79R WCI  17
REDWOOD FALLS  CLOUDY    30  22  72 W15       29.78R WCI  19
OLIVIA         CLOUDY    30  27  86 W13G18    29.76R WCI  20
PIPESTONE      SUNNY     25  19  80 W9        29.78R WCI  15
WINDOM         MOSUNNY   25  19  80 SW10      29.78R WCI  15
WORTHINGTON    SUNNY     22  17  81 W15       29.80R WCI   9
JACKSON        SUNNY     23  18  80 SW9       29.79R WCI  13
TRACY          CLOUDY    29  24  82 W7        29.78R WCI  22
SLAYTON        MOSUNNY   26  22  84 W13       29.79R WCI  15
$$
MNZ065>067-074>077-082>085-091>093-261600-
   South Central Minnesota

CITY           SKY/WX    TMP DP  RH WIND       PRES   REMARKS
MANKATO          N/A     21  17  84 S9        29.79R WCI  11
NEW ULM        CLOUDY    27  21  80 W8        29.78R WCI  18
ST JAMES       PTSUNNY   27  21  80 SW10      29.80R WCI  17
FAIRMONT       SUNNY     23  17  78 W15       29.80R WCI  10
GLENCOE        CLOUDY    27  25  91 SW6       29.76R WCI  20
FARIBAULT      CLOUDY    19  16  86 S6        29.79R WCI  11
OWATONNA       CLOUDY    21  16  79 SW10      29.77S WCI  10
WASECA         CLOUDY    19  16  86 SW8       29.81R WCI   9
ALBERT LEA     SUNNY     21  18  86 SW10G17   29.79R WCI  10
$$
MNZ078>079-086>088-094>096-261600-
   Southeast Minnesota

CITY           SKY/WX    TMP DP  RH WIND       PRES   REMARKS
ROCHESTER      SUNNY     20  16  84 SW12      29.78R WCI   8
RED WING       SUNNY     25  16  68 W9        29.78R WCI  15
STANTON        CLOUDY    23  17  78 SW6       29.78R WCI  15
WINONA         SUNNY     30  19  64 SW8       29.81R WCI  23
AUSTIN         SUNNY     21  16  79 SW9       29.80R WCI  11
PRESTON        SUNNY     26  18  73 SW14      29.79R WCI  14
$$
ABBREVIATIONS USED IN REMARKS
   TC - TEMPERATURES IN CELSIUS
  WCI - WIND CHILL INDEX
   HX - HEAT INDEX
  VSB - VISIBILITY
$$




USA.gov is the U.S. government's official web portal to all federal, state and local government web resources and services.